Tracking 35334 objects as of 12-Sep-2026
HD Live streaming from Space Station
objects crossing your sky now

STARLINK-36642

Track STARLINK-36642 now!
10-day predictions
STARLINK-36642 is classified as:


NORAD ID: 67659
Int'l Code: 2026-022M
Launch date: February 2, 2026
Source: United States (US)
Launch site: AIR FORCE WESTERN TEST RANGE (AFWTR)
Your satellite tracking list
Your tracking list is empty




NASA's NSSDC Master Catalog

Two Line Element Set (TLE):
1 67659U 26022M   26255.06156538  .00003761  00000-0  11874-3 0  9990
2 67659  97.2835 286.7441 0001041  59.5065 300.6280 15.33450630 34137
Source of the keplerian elements: AFSPC